When you browse on this site, cookies collect data to enhance your experience and personalize the content and advertising you see.
Visit our Privacy Policy to learn more. By continuing to use the site, you agree to this use of cookies and data.

Hourly Weather Chegem

Today, 9 July, Thursday

Time Temperature Precipitation Wind Pressure Humidity
00:00 +12°C° 0.4 mm 2 mps 594 mmHg 90%
01:00 +12°C° 0.2 mm 2 mps 594 mmHg 89%
02:00 +12°C° 0.2 mm 1 mps 595 mmHg 88%
03:00 +12°C° 0 mm 2 mps 595 mmHg 89%
04:00 +12°C° 1.2 mm 2 mps 595 mmHg 90%
05:00 +13°C° 1.2 mm 1 mps 595 mmHg 91%
06:00 +13°C° 1.2 mm 1 mps 595 mmHg 91%
07:00 +13°C° 0.3 mm 1 mps 596 mmHg 90%
08:00 +14°C° 0.3 mm 1 mps 596 mmHg 89%
09:00 +15°C° 0 mm 1 mps 596 mmHg 90%
10:00 +15°C° 0.9 mm 1 mps 597 mmHg 90%
11:00 +15°C° 0.9 mm 2 mps 597 mmHg 90%
12:00 +16°C° 0.9 mm 2 mps 597 mmHg 91%
13:00 +15°C° 1.5 mm 1 mps 597 mmHg 92%
14:00 +15°C° 1.5 mm 1 mps 597 mmHg 94%
15:00 +14°C° 0 mm 1 mps 597 mmHg 95%
16:00 +14°C° 2 mm 1 mps 597 mmHg 96%
17:00 +14°C° 2 mm 1 mps 596 mmHg 96%
18:00 +13°C° 2 mm 1 mps 596 mmHg 96%
19:00 +13°C° 1 mm 1 mps 596 mmHg 94%
20:00 +12°C° 1 mm 1 mps 597 mmHg 92%
21:00 +12°C° 1 mm 1 mps 597 mmHg 90%
22:00 +12°C° 0.2 mm 1 mps 596 mmHg 90%
23:00 +12°C° 0.2 mm 1 mps 596 mmHg 90%

Tomorrow, 10 July, Friday

Time Temperature Precipitation Wind Pressure Humidity
00:00 +10°C° 0.2 mm 0 mps 596 mmHg 90%
01:00 +10°C° 0.1 mm 0 mps 596 mmHg 91%
02:00 +9°C° 0.1 mm 0 mps 595 mmHg 92%
03:00 +8°C° 0.1 mm 0 mps 595 mmHg 92%
04:00 +9°C° 0.4 mm 0 mps 596 mmHg 92%
05:00 +10°C° 0.4 mm 0 mps 596 mmHg 91%
06:00 +11°C° 0.4 mm 0 mps 597 mmHg 90%
07:00 +13°C° 0.4 mm 1 mps 597 mmHg 89%
08:00 +14°C° 0.4 mm 1 mps 598 mmHg 88%
09:00 +14°C° 0.4 mm 1 mps 598 mmHg 88%
10:00 +15°C° 0.4 mm 2 mps 598 mmHg 89%
11:00 +15°C° 0.4 mm 2 mps 598 mmHg 91%
12:00 +15°C° 0.4 mm 2 mps 598 mmHg 92%
13:00 +15°C° 0.5 mm 2 mps 598 mmHg 92%
14:00 +15°C° 0.5 mm 2 mps 598 mmHg 92%
15:00 +15°C° 0.5 mm 2 mps 598 mmHg 93%
16:00 +15°C° 0.4 mm 2 mps 598 mmHg 94%
17:00 +14°C° 0.4 mm 2 mps 597 mmHg 95%
18:00 +14°C° 0.4 mm 1 mps 597 mmHg 96%
19:00 +13°C° 0.2 mm 1 mps 597 mmHg 97%
20:00 +13°C° 0.2 mm 1 mps 597 mmHg 97%
21:00 +12°C° 0.2 mm 1 mps 597 mmHg 98%
22:00 +12°C° 0 mm 1 mps 597 mmHg 97%
23:00 +11°C° 0 mm 1 mps 597 mmHg 96%

Day after tomorrow, 11 July, Saturday

Time Temperature Precipitation Wind Pressure Humidity
00:00 +11°C° 0 mm 1 mps 597 mmHg 96%
01:00 +11°C° 0 mm 1 mps 596 mmHg 94%
02:00 +10°C° 0 mm 1 mps 596 mmHg 93%
03:00 +10°C° 0 mm 1 mps 596 mmHg 92%
04:00 +10°C° 0 mm 1 mps 596 mmHg 92%
05:00 +11°C° 0 mm 1 mps 596 mmHg 92%
06:00 +12°C° 0 mm 1 mps 597 mmHg 92%
07:00 +13°C° 0 mm 1 mps 597 mmHg 89%
08:00 +14°C° 0 mm 1 mps 597 mmHg 86%
09:00 +15°C° 0 mm 2 mps 598 mmHg 83%
10:00 +15°C° 0.4 mm 2 mps 598 mmHg 84%
11:00 +15°C° 0.4 mm 2 mps 597 mmHg 86%
12:00 +16°C° 0.4 mm 2 mps 597 mmHg 87%
13:00 +15°C° 0.8 mm 2 mps 597 mmHg 89%
14:00 +15°C° 0.8 mm 2 mps 597 mmHg 91%
15:00 +15°C° 0.8 mm 2 mps 597 mmHg 93%
16:00 +15°C° 0.5 mm 2 mps 597 mmHg 93%
17:00 +15°C° 0.5 mm 2 mps 596 mmHg 92%
18:00 +15°C° 0.5 mm 1 mps 596 mmHg 92%
19:00 +14°C° 0.1 mm 1 mps 596 mmHg 93%
20:00 +13°C° 0.1 mm 1 mps 596 mmHg 94%
21:00 +12°C° 0.1 mm 1 mps 595 mmHg 95%
22:00 +11°C° 0 mm 1 mps 595 mmHg 94%
23:00 +11°C° 0 mm 1 mps 594 mmHg 92%

12 July, Sunday

Time Temperature Precipitation Wind Pressure Humidity
00:00 +10°C° 0 mm 1 mps 594 mmHg 91%
01:00 +10°C° 0 mm 1 mps 593 mmHg 89%
02:00 +9°C° 0 mm 2 mps 593 mmHg 87%
03:00 +9°C° 0 mm 2 mps 593 mmHg 85%
04:00 +11°C° 0 mm 1 mps 593 mmHg 85%
05:00 +11°C° 0 mm 1 mps 593 mmHg 85%
06:00 +12°C° 0 mm 1 mps 594 mmHg 85%
07:00 +13°C° 0 mm 1 mps 594 mmHg 82%
08:00 +15°C° 0 mm 1 mps 595 mmHg 80%
09:00 +16°C° 0 mm 2 mps 595 mmHg 77%
10:00 +16°C° 0.5 mm 2 mps 595 mmHg 79%
11:00 +16°C° 0.5 mm 2 mps 595 mmHg 81%
12:00 +16°C° 0.5 mm 2 mps 595 mmHg 84%
13:00 +16°C° 0.8 mm 2 mps 595 mmHg 85%
14:00 +17°C° 0.8 mm 2 mps 595 mmHg 86%
15:00 +17°C° 0.8 mm 2 mps 594 mmHg 86%
16:00 +16°C° 0.8 mm 1 mps 594 mmHg 88%
17:00 +16°C° 0.8 mm 1 mps 594 mmHg 90%
18:00 +16°C° 0.8 mm 1 mps 594 mmHg 92%
19:00 +14°C° 0.8 mm 1 mps 593 mmHg 92%
20:00 +13°C° 0.8 mm 1 mps 593 mmHg 92%
21:00 +11°C° 0.8 mm 1 mps 592 mmHg 92%
22:00 +10°C° 0.1 mm 2 mps 592 mmHg 89%
23:00 +10°C° 0.1 mm 2 mps 592 mmHg 87%

13 July, Monday

Time Temperature Precipitation Wind Pressure Humidity
00:00 +10°C° 0.1 mm 3 mps 591 mmHg 84%
01:00 +10°C° 0 mm 3 mps 591 mmHg 83%
02:00 +10°C° 0 mm 3 mps 591 mmHg 82%
03:00 +10°C° 0 mm 3 mps 591 mmHg 82%
04:00 +10°C° 0 mm 3 mps 591 mmHg 81%
05:00 +11°C° 0 mm 3 mps 592 mmHg 80%
06:00 +13°C° 0 mm 2 mps 592 mmHg 79%
07:00 +15°C° 0 mm 2 mps 593 mmHg 73%
08:00 +17°C° 0 mm 2 mps 593 mmHg 68%
09:00 +18°C° 0 mm 2 mps 594 mmHg 62%
10:00 +19°C° 0.5 mm 2 mps 594 mmHg 65%
11:00 +19°C° 0.5 mm 2 mps 594 mmHg 69%
12:00 +19°C° 0.5 mm 2 mps 594 mmHg 72%
13:00 +19°C° 1.3 mm 2 mps 594 mmHg 75%
14:00 +18°C° 1.3 mm 2 mps 594 mmHg 78%
15:00 +19°C° 1.3 mm 1 mps 593 mmHg 81%
16:00 +18°C° 1.5 mm 1 mps 593 mmHg 82%
17:00 +18°C° 1.5 mm 1 mps 593 mmHg 83%
18:00 +16°C° 1.5 mm 1 mps 593 mmHg 84%
19:00 +14°C° 0.9 mm 1 mps 592 mmHg 86%
20:00 +13°C° 0.9 mm 1 mps 592 mmHg 88%
21:00 +11°C° 0.9 mm 1 mps 591 mmHg 90%
22:00 +11°C° 0 mm 1 mps 591 mmHg 87%
23:00 +10°C° 0 mm 2 mps 591 mmHg 85%

14 July, Tuesday

Time Temperature Precipitation Wind Pressure Humidity
00:00 +10°C° 0 mm 3 mps 591 mmHg 83%
01:00 +9°C° 0 mm 3 mps 591 mmHg 83%
02:00 +9°C° 0 mm 3 mps 591 mmHg 83%
03:00 +9°C° 0 mm 3 mps 592 mmHg 83%
04:00 +10°C° 0 mm 2 mps 592 mmHg 82%
05:00 +12°C° 0 mm 2 mps 593 mmHg 81%
06:00 +12°C° 0 mm 2 mps 593 mmHg 79%
07:00 +14°C° 0 mm 2 mps 594 mmHg 76%
08:00 +16°C° 0 mm 2 mps 595 mmHg 72%
09:00 +17°C° 0 mm 2 mps 595 mmHg 69%
10:00 +18°C° 0.4 mm 2 mps 596 mmHg 71%
11:00 +18°C° 0.4 mm 2 mps 596 mmHg 73%
12:00 +18°C° 0.4 mm 2 mps 596 mmHg 75%
13:00 +18°C° 1.2 mm 2 mps 596 mmHg 77%
14:00 +18°C° 1.2 mm 2 mps 596 mmHg 80%
15:00 +19°C° 1.2 mm 1 mps 595 mmHg 83%
16:00 +18°C° 1.5 mm 1 mps 595 mmHg 84%
17:00 +18°C° 1.5 mm 1 mps 595 mmHg 85%
18:00 +16°C° 1.5 mm 1 mps 595 mmHg 87%
19:00 +15°C° 1.1 mm 1 mps 595 mmHg 88%
20:00 +13°C° 1.1 mm 2 mps 594 mmHg 89%
21:00 +12°C° 1.1 mm 2 mps 594 mmHg 90%
22:00 +10°C° 0 mm 2 mps 594 mmHg 89%
23:00 +10°C° 0 mm 3 mps 594 mmHg 87%
Show more